When you browse on this site, cookies collect data to enhance your experience and personalize the content and advertising you see.
Visit our Privacy Policy to learn more. By continuing to use the site, you agree to this use of cookies and data.
  • In Hungary
  • List of Countries
  • For 7 days
  • Water Temperature
  • Weather Map
  • News
  • Weather Widgets
  • user-avatar
    Login

    Hourly Weather Bokoro

    Today, 13 November, Wednesday

    Time Temperature Precipitation Wind Pressure Humidity
    00:00 +30°C° 0 mm 1 mps 729 mmHg 21%
    01:00 +30°C° 0 mm 1 mps 729 mmHg 21%
    02:00 +29°C° 0 mm 1 mps 729 mmHg 21%
    03:00 +29°C° 0 mm 1 mps 729 mmHg 22%
    04:00 +28°C° 0 mm 1 mps 729 mmHg 22%
    05:00 +29°C° 0 mm 1 mps 730 mmHg 21%
    06:00 +30°C° 0 mm 1 mps 730 mmHg 21%
    07:00 +30°C° 0 mm 1 mps 731 mmHg 20%
    08:00 +32°C° 0 mm 1 mps 731 mmHg 18%
    09:00 +34°C° 0 mm 1 mps 731 mmHg 15%
    10:00 +36°C° 0 mm 1 mps 731 mmHg 12%
    11:00 +37°C° 0 mm 1 mps 731 mmHg 11%
    12:00 +39°C° 0 mm 1 mps 730 mmHg 11%
    13:00 +40°C° 0 mm 1 mps 729 mmHg 11%
    14:00 +40°C° 0 mm 1 mps 729 mmHg 10%
    15:00 +40°C° 0 mm 1 mps 729 mmHg 10%
    16:00 +40°C° 0 mm 1 mps 728 mmHg 10%
    17:00 +38°C° 0 mm 2 mps 729 mmHg 12%
    18:00 +37°C° 0 mm 2 mps 729 mmHg 14%
    19:00 +35°C° 0 mm 2 mps 729 mmHg 16%
    20:00 +34°C° 0 mm 2 mps 730 mmHg 16%
    21:00 +32°C° 0 mm 2 mps 730 mmHg 15%
    22:00 +31°C° 0 mm 2 mps 730 mmHg 15%
    23:00 +31°C° 0 mm 2 mps 730 mmHg 15%

    Tomorrow, 14 November, Thursday

    Time Temperature Precipitation Wind Pressure Humidity
    00:00 +30°C° 0 mm 2 mps 730 mmHg 15%
    01:00 +30°C° 0 mm 2 mps 730 mmHg 16%
    02:00 +29°C° 0 mm 2 mps 730 mmHg 16%
    03:00 +29°C° 0 mm 3 mps 730 mmHg 16%
    04:00 +28°C° 0 mm 3 mps 729 mmHg 16%
    05:00 +28°C° 0 mm 3 mps 730 mmHg 16%
    06:00 +28°C° 0 mm 3 mps 730 mmHg 16%
    07:00 +29°C° 0 mm 3 mps 731 mmHg 16%
    08:00 +31°C° 0 mm 3 mps 731 mmHg 14%
    09:00 +35°C° 0 mm 4 mps 731 mmHg 11%
    10:00 +38°C° 0 mm 4 mps 731 mmHg 9%
    11:00 +40°C° 0 mm 4 mps 731 mmHg 8%
    12:00 +41°C° 0 mm 4 mps 730 mmHg 7%
    13:00 +42°C° 0 mm 4 mps 729 mmHg 7%
    14:00 +42°C° 0 mm 4 mps 729 mmHg 7%
    15:00 +42°C° 0 mm 4 mps 728 mmHg 7%
    16:00 +42°C° 0 mm 4 mps 728 mmHg 7%
    17:00 +40°C° 0 mm 4 mps 728 mmHg 7%
    18:00 +37°C° 0 mm 3 mps 729 mmHg 8%
    19:00 +35°C° 0 mm 3 mps 729 mmHg 9%
    20:00 +34°C° 0 mm 3 mps 729 mmHg 10%
    21:00 +33°C° 0 mm 3 mps 730 mmHg 10%
    22:00 +33°C° 0 mm 3 mps 730 mmHg 10%
    23:00 +31°C° 0 mm 3 mps 730 mmHg 11%

    Day after tomorrow, 15 November, Friday

    Time Temperature Precipitation Wind Pressure Humidity
    00:00 +30°C° 0 mm 4 mps 730 mmHg 11%
    01:00 +30°C° 0 mm 4 mps 730 mmHg 11%
    02:00 +29°C° 0 mm 4 mps 730 mmHg 12%
    03:00 +28°C° 0 mm 4 mps 730 mmHg 12%
    04:00 +28°C° 0 mm 4 mps 729 mmHg 13%
    05:00 +28°C° 0 mm 4 mps 730 mmHg 14%
    06:00 +28°C° 0 mm 4 mps 730 mmHg 15%
    07:00 +28°C° 0 mm 3 mps 731 mmHg 17%
    08:00 +32°C° 0 mm 4 mps 731 mmHg 15%
    09:00 +35°C° 0 mm 5 mps 731 mmHg 13%
    10:00 +38°C° 0 mm 6 mps 731 mmHg 11%
    11:00 +40°C° 0 mm 5 mps 730 mmHg 9%
    12:00 +41°C° 0 mm 4 mps 729 mmHg 9%
    13:00 +42°C° 0 mm 4 mps 729 mmHg 8%
    14:00 +42°C° 0 mm 3 mps 728 mmHg 8%
    15:00 +41°C° 0 mm 2 mps 728 mmHg 8%
    16:00 +41°C° 0 mm 2 mps 728 mmHg 8%
    17:00 +39°C° 0 mm 2 mps 728 mmHg 10%
    18:00 +37°C° 0 mm 2 mps 728 mmHg 11%
    19:00 +35°C° 0 mm 2 mps 728 mmHg 13%
    20:00 +34°C° 0 mm 2 mps 728 mmHg 13%
    21:00 +32°C° 0 mm 2 mps 729 mmHg 14%
    22:00 +32°C° 0 mm 2 mps 729 mmHg 14%
    23:00 +31°C° 0 mm 2 mps 729 mmHg 15%

    16 November, Saturday

    Time Temperature Precipitation Wind Pressure Humidity
    00:00 +31°C° 0 mm 2 mps 729 mmHg 15%
    01:00 +30°C° 0 mm 2 mps 729 mmHg 16%
    02:00 +30°C° 0 mm 3 mps 729 mmHg 16%
    03:00 +29°C° 0 mm 3 mps 729 mmHg 16%
    04:00 +28°C° 0 mm 3 mps 729 mmHg 17%
    05:00 +28°C° 0 mm 3 mps 729 mmHg 17%
    06:00 +28°C° 0 mm 3 mps 729 mmHg 18%
    07:00 +28°C° 0 mm 3 mps 730 mmHg 19%
    08:00 +32°C° 0 mm 4 mps 730 mmHg 16%
    09:00 +35°C° 0 mm 4 mps 730 mmHg 14%
    10:00 +39°C° 0 mm 5 mps 730 mmHg 12%
    11:00 +40°C° 0 mm 4 mps 730 mmHg 11%
    12:00 +42°C° 0 mm 4 mps 729 mmHg 10%
    13:00 +43°C° 0 mm 3 mps 728 mmHg 9%
    14:00 +43°C° 0 mm 4 mps 728 mmHg 9%
    15:00 +43°C° 0 mm 4 mps 727 mmHg 9%
    16:00 +42°C° 0 mm 4 mps 727 mmHg 10%
    17:00 +40°C° 0 mm 4 mps 727 mmHg 11%
    18:00 +37°C° 0 mm 4 mps 727 mmHg 13%
    19:00 +35°C° 0 mm 4 mps 728 mmHg 15%
    20:00 +35°C° 0 mm 4 mps 728 mmHg 16%
    21:00 +34°C° 0 mm 3 mps 728 mmHg 17%
    22:00 +33°C° 0 mm 3 mps 728 mmHg 17%
    23:00 +33°C° 0 mm 3 mps 728 mmHg 18%

    17 November, Sunday

    Time Temperature Precipitation Wind Pressure Humidity
    00:00 +31°C° 0 mm 3 mps 728 mmHg 18%
    01:00 +31°C° 0 mm 3 mps 728 mmHg 18%
    02:00 +30°C° 0 mm 4 mps 728 mmHg 19%
    03:00 +30°C° 0 mm 4 mps 728 mmHg 20%
    04:00 +29°C° 0 mm 4 mps 728 mmHg 20%
    05:00 +29°C° 0 mm 4 mps 729 mmHg 21%
    06:00 +29°C° 0 mm 3 mps 729 mmHg 23%
    07:00 +29°C° 0 mm 3 mps 730 mmHg 24%
    08:00 +33°C° 0 mm 4 mps 730 mmHg 20%
    09:00 +35°C° 0 mm 4 mps 730 mmHg 17%
    10:00 +39°C° 0 mm 5 mps 731 mmHg 14%
    11:00 +41°C° 0 mm 4 mps 730 mmHg 13%
    12:00 +42°C° 0 mm 4 mps 729 mmHg 12%
    13:00 +43°C° 0 mm 3 mps 729 mmHg 10%
    14:00 +43°C° 0 mm 3 mps 728 mmHg 10%
    15:00 +43°C° 0 mm 3 mps 728 mmHg 10%
    16:00 +43°C° 0 mm 3 mps 727 mmHg 10%
    17:00 +40°C° 0 mm 3 mps 728 mmHg 12%
    18:00 +38°C° 0 mm 3 mps 728 mmHg 14%
    19:00 +36°C° 0 mm 4 mps 728 mmHg 15%
    20:00 +35°C° 0 mm 3 mps 728 mmHg 16%
    21:00 +34°C° 0 mm 3 mps 729 mmHg 17%
    22:00 +33°C° 0 mm 3 mps 729 mmHg 17%
    23:00 +33°C° 0 mm 3 mps 729 mmHg 18%

    18 November, Monday

    Time Temperature Precipitation Wind Pressure Humidity
    00:00 +31°C° 0 mm 3 mps 729 mmHg 19%
    01:00 +31°C° 0 mm 2 mps 729 mmHg 20%
    02:00 +30°C° 0 mm 2 mps 729 mmHg 21%
    03:00 +29°C° 0 mm 2 mps 729 mmHg 22%
    04:00 +29°C° 0 mm 2 mps 729 mmHg 23%
    05:00 +29°C° 0 mm 2 mps 729 mmHg 23%
    06:00 +29°C° 0 mm 2 mps 730 mmHg 24%
    07:00 +30°C° 0 mm 2 mps 730 mmHg 24%
    08:00 +32°C° 0 mm 2 mps 730 mmHg 21%
    09:00 +36°C° 0 mm 3 mps 731 mmHg 18%
    10:00 +38°C° 0 mm 4 mps 731 mmHg 15%
    11:00 +39°C° 0 mm 3 mps 730 mmHg 13%
    12:00 +42°C° 0 mm 3 mps 730 mmHg 12%
    13:00 +42°C° 0 mm 2 mps 729 mmHg 11%
    14:00 +42°C° 0 mm 2 mps 729 mmHg 11%
    15:00 +42°C° 0 mm 2 mps 728 mmHg 11%
    16:00 +42°C° 0 mm 2 mps 728 mmHg 11%
    17:00 +40°C° 0 mm 2 mps 728 mmHg 13%
    18:00 +38°C° 0 mm 2 mps 729 mmHg 15%
    19:00 +36°C° 0 mm 2 mps 729 mmHg 18%
    20:00 +35°C° 0 mm 2 mps 729 mmHg 19%
    21:00 +35°C° 0 mm 2 mps 730 mmHg 19%
    22:00 +34°C° 0 mm 2 mps 730 mmHg 20%
    23:00 +34°C° 0 mm 2 mps 730 mmHg 21%
    Show more